Location: Staunton
(38.1490°N, 79.0720°W)
Time: 14:22:35
(UTC-04:00)

ISS - Pass Details

Date: 25 May 2017
Orbit: 402 x 408 km, 51.6° (Epoch: 29 May)

Event Time Altitude Azimuth Distance (km) Brightness Sun altitude
Rises 21:08:28 0° 222° (SW) 2,318 0.1 -7.5°
Reaches altitude 10° 21:10:33 10° 219° (SW) 1,461 -0.9 -7.8°
Maximum altitude 21:13:48 62° 137° (SE) 461 -3.8 -8.4°
Drops below altitude 10° 21:17:03 10° 57° (ENE) 1,468 -1.2 -8.9°
Sets 21:19:09 0° 54° (NE) 2,330 -0.2 -9.2°
